Elizabeth City, NC

6:59 PM EDT on May 23, 2017 (GMT -0400)
Elizabeth City Cgas-Regional

Weather History for KECG - September, 2013

Change the Weather History Date:

Tuesday, September 10, 2013

  Actual Average Record
Temperature  
Mean Temperature 78 °F 74 °F  
Max Temperature 90 °F 83 °F 96 °F (1939)
Min Temperature 65 °F 65 °F 49 °F (1998)
Degree Days  
Heating Degree Days 0 0  
Month to date heating degree days 0 0  
Since 1 July heating degree days 0 0  
Cooling Degree Days 13 9  
Month to date cooling degree days 113 99  
Year to date cooling degree days 1493 1395  
Growing Degree Days 28 (Base 50)    
Moisture  
Dew Point 67 °F    
Average Humidity 73    
Maximum Humidity 100    
Minimum Humidity 45    
Precipitation  
Precipitation 0.00 in 0.13 in 2.66 in (1967)
Month to date precipitation 0.67 1.37  
Year to date precipitation 30.70 35.33  
Snow  
Snow 0.00 in - 0.00 in (2002)
Month to date snowfall 0.0  
Since 1 July snowfall 0.0  
Snow Depth 0.00 in    
Sea Level Pressure  
Sea Level Pressure 30.20 in    
Wind  
Wind Speed 4 mph (SSE)    
Max Wind Speed 12 mph    
Max Gust Speed 16 mph    
Visibility 6 miles    
Events Fog    
T = Trace of Precipitation, MM = Missing Value Source: NWS Daily Summary

Daily Weather History Graph

Daily Weather History Graph

Search for Another Location

Airport or City:

Trip Planner

Search our weather history database for the weather conditions in past years. The results will help you decide how hot, cold, wet, or windy it might be!

Date:

Astronomy

Sep. 10, 2013 Rise Set
Actual Time 6:43 AM EDT 7:19 PM EDT
Civil Twilight 6:17 AM EDT 7:44 PM EDT
Nautical Twilight 5:46 AM EDT 8:15 PM EDT
Astronomical Twilight 5:15 AM EDT 8:46 PM EDT
Moon 11:56 AM EDT (9/10) 10:31 PM EDT (9/10)
Length of Visible Light 13h 27m
Length of Day
12h 35m
Waxing Crescent, 28% of the Moon is Illuminated
Sep 10
Waxing Crescent
Sep 12
First Quarter
Sep 19
Full
Sep 26
Last Quarter
Oct 4
New

Hourly Weather History & Observations

Time (EDT) Temp. Heat Index Dew Point Humidity Pressure Visibility Wind Dir Wind Speed Gust Speed Precip Events Conditions
12:54 AM 71.1 °F - 69.1 °F 93% 30.17 in 9.0 mi Calm Calm - N/A   Clear
1:54 AM 71.1 °F - 68.0 °F 90% 30.18 in 10.0 mi ESE 3.5 mph - N/A   Clear
2:54 AM 70.0 °F - 66.9 °F 90% 30.17 in 9.0 mi Calm Calm - N/A   Clear
3:54 AM 68.0 °F - 66.0 °F 93% 30.18 in 6.0 mi Calm Calm - N/A   Clear
4:38 AM 68.0 °F - 68.0 °F 100% 30.18 in 1.5 mi Calm Calm - N/A   Clear
4:42 AM 66.2 °F - 66.2 °F 100% 30.18 in 0.5 mi Calm Calm - N/A Fog Fog
4:54 AM 66.9 °F - 66.0 °F 97% 30.18 in 1.5 mi Calm Calm - N/A   Partly Cloudy
4:56 AM 66.2 °F - 66.2 °F 100% 30.18 in 3.0 mi Calm Calm - N/A   Partly Cloudy
5:38 AM 66.2 °F - 66.2 °F 100% 30.19 in 1.8 mi Calm Calm - N/A   Clear
5:40 AM 66.2 °F - 66.2 °F 100% 30.19 in 0.8 mi Calm Calm - N/A   Mist
5:54 AM 66.9 °F - 66.0 °F 97% 30.19 in 0.2 mi Calm Calm - N/A Fog Fog
6:09 AM 66.2 °F - 66.2 °F 100% 30.19 in 0.8 mi Calm Calm - N/A   Mist
6:26 AM 66.2 °F - 64.4 °F 94% 30.20 in 1.2 mi Calm Calm - N/A   Partly Cloudy
6:40 AM 66.2 °F - 66.2 °F 100% 30.20 in 0.2 mi Calm Calm - N/A Fog Fog
6:52 AM 66.2 °F - 64.4 °F 94% 30.21 in 0.2 mi Calm Calm - N/A Fog Fog
6:54 AM 66.0 °F - 64.9 °F 96% 30.21 in 0.2 mi Calm Calm - N/A Fog Fog
7:01 AM 66.2 °F - 66.2 °F 100% 30.21 in 2.0 mi Calm Calm - N/A   Clear
7:25 AM 66.2 °F - 66.2 °F 100% 30.22 in 5.0 mi Calm Calm - N/A   Clear
7:54 AM 70.0 °F - 70.0 °F 100% 30.22 in 5.0 mi Calm Calm - N/A   Clear
8:54 AM 75.9 °F - 73.0 °F 91% 30.23 in 6.0 mi Calm Calm - N/A   Clear
9:54 AM 80.1 °F 84.2 °F 73.0 °F 79% 30.25 in 10.0 mi Calm Calm - N/A   Clear
10:54 AM 90.0 °F 95.4 °F 70.0 °F 52% 30.25 in 10.0 mi NNE 3.5 mph - N/A   Clear
11:54 AM 84.9 °F 88.8 °F 69.1 °F 59% 30.24 in 10.0 mi Variable 3.5 mph - N/A   Clear
12:54 PM 86.0 °F 90.7 °F 70.0 °F 59% 30.23 in 10.0 mi NNE 4.6 mph - N/A   Clear
1:54 PM 86.0 °F 90.7 °F 70.0 °F 59% 30.22 in 10.0 mi ESE 6.9 mph - N/A   Partly Cloudy
2:54 PM 86.0 °F 88.8 °F 66.9 °F 53% 30.19 in 10.0 mi South 9.2 mph - N/A   Scattered Clouds
3:54 PM 86.0 °F 86.8 °F 63.0 °F 46% 30.18 in 10.0 mi South 8.1 mph - N/A   Clear
4:54 PM 86.0 °F 87.3 °F 64.0 °F 48% 30.17 in 10.0 mi SSE 8.1 mph - N/A   Clear
5:54 PM 84.0 °F 85.8 °F 64.9 °F 53% 30.18 in 10.0 mi SE 5.8 mph - N/A   Clear
6:54 PM 81.0 °F 83.8 °F 68.0 °F 65% 30.18 in 10.0 mi SE 5.8 mph - N/A   Clear
7:54 PM 78.1 °F - 66.9 °F 68% 30.18 in 10.0 mi SSE 5.8 mph - N/A   Clear
8:54 PM 77.0 °F - 69.1 °F 76% 30.20 in 10.0 mi SSE 6.9 mph - N/A   Clear
9:54 PM 75.0 °F - 68.0 °F 79% 30.20 in 10.0 mi South 4.6 mph - N/A   Clear
10:54 PM 72.0 °F - 68.0 °F 87% 30.21 in 10.0 mi South 3.5 mph - N/A   Clear
11:54 PM 73.0 °F - 70.0 °F 90% 30.21 in 10.0 mi South 3.5 mph - N/A   Clear